Location: Newark
(14.4833°N, 101.9000°E)
Time: 03:37:06
(UTC+00:00)

CAS-4A - Visible Passes

Search period start: 05 December 2020 00:00
Search period end: 15 December 2020 00:00
Orbit: 528 x 543 km, 43.0° (Epoch: 04 December)

Date Brightness Start Highest point End Pass type
(mag) Time Alt. Az. Time Alt. Az. Time Alt. Az.
06 Dec ? 22:24:32 10° SSE 22:26:20 13° SE 22:28:07 10° ESE visible
07 Dec ? 22:12:56 10° S 22:15:45 18° SE 22:18:34 10° E visible
08 Dec ? 22:01:48 10° S 22:05:11 26° SE 22:08:34 10° ENE visible
09 Dec ? 21:50:51 10° SSW 21:54:37 37° SE 21:58:21 10° ENE visible
10 Dec ? 21:43:22 48° S 21:44:02 55° SE 21:48:00 10° ENE visible
11 Dec ? 21:35:19 31° NE 21:35:19 31° NE 21:37:31 10° NE visible
12 Dec ? 21:26:45 11° NE 21:26:45 11° NE 21:26:57 10° NE visible
